Location: American Medical Response
(33.3472°N, 96.5511°W)
Time: 11:48:59
(UTC+00:00)

H-2A R/B - Pass Details

Date: 08 December 2021
Orbit: 576 x 654 km, 98.5° (Epoch: 22 January)

Event Time Altitude Azimuth Distance (km) Brightness Sun altitude
Rises 12:34:10 0° 158° (SSE) 2,839 6.2 -9.2°
Reaches altitude 10° 12:36:19 10° 155° (SSE) 1,952 5.4 -8.7°
Maximum altitude 12:40:30 62° 75° (ENE) 697 2.6 -7.9°
Drops below altitude 10° 12:44:50 10° 355° (N) 2,012 4.4 -7.1°
Sets 12:47:04 0° 352° (N) 2,935 5.2 -6.7°
